Location: Arpaise
(41.0333°N, 14.7333°E)
Time: 01:32:00
(UTC+00:00)

Cosmos 1743 Rocket - Pass Details

Date: 05 July 2020
Orbit: 605 x 631 km, 82.6° (Epoch: 11 August)

Event Time Altitude Azimuth Distance (km) Brightness Sun altitude
Exits shadow 23:12:37 61° 29° (NNE) 693 3.9 -26.3°
Drops below altitude 10° 23:16:16 10° 11° (N) 1,968 7.1 -26.3°
Sets 23:18:30 0° 10° (N) 2,879 8.3 -26.2°
